When you browse on this site, cookies collect data to enhance your experience and personalize the content and advertising you see.
Visit our Privacy Policy to learn more. By continuing to use the site, you agree to this use of cookies and data.
  • In Hungary
  • List of Countries
  • For 7 days
  • Water Temperature
  • Weather Map
  • News
  • Weather Widgets
  • user-avatar
    Login

    Hourly Weather Elkovo

    Today, 18 October, Friday

    Time Temperature Precipitation Wind Pressure Humidity
    00:00 +10°C° 0 mm 3 mps 744 mmHg 88%
    01:00 +10°C° 0 mm 3 mps 745 mmHg 89%
    02:00 +10°C° 0 mm 2 mps 745 mmHg 90%
    03:00 +9°C° 0 mm 2 mps 745 mmHg 90%
    04:00 +9°C° 0 mm 2 mps 745 mmHg 91%
    05:00 +9°C° 0 mm 2 mps 745 mmHg 91%
    06:00 +9°C° 0 mm 2 mps 745 mmHg 89%
    07:00 +10°C° 0 mm 2 mps 745 mmHg 86%
    08:00 +10°C° 0 mm 2 mps 745 mmHg 84%
    09:00 +12°C° 0 mm 3 mps 745 mmHg 79%
    10:00 +13°C° 0 mm 3 mps 745 mmHg 73%
    11:00 +14°C° 0 mm 3 mps 746 mmHg 67%
    12:00 +16°C° 0 mm 3 mps 745 mmHg 66%
    13:00 +16°C° 0 mm 3 mps 745 mmHg 65%
    14:00 +17°C° 0 mm 2 mps 745 mmHg 64%
    15:00 +15°C° 0 mm 2 mps 745 mmHg 69%
    16:00 +14°C° 0 mm 2 mps 745 mmHg 75%
    17:00 +13°C° 0 mm 1 mps 745 mmHg 81%
    18:00 +12°C° 0 mm 1 mps 746 mmHg 83%
    19:00 +12°C° 0 mm 1 mps 746 mmHg 85%
    20:00 +11°C° 0 mm 1 mps 746 mmHg 88%
    21:00 +10°C° 0 mm 0 mps 746 mmHg 88%
    22:00 +10°C° 0 mm 0 mps 746 mmHg 89%
    23:00 +10°C° 0 mm 0 mps 746 mmHg 89%

    Tomorrow, 19 October, Saturday

    Time Temperature Precipitation Wind Pressure Humidity
    00:00 +9°C° 0 mm 0 mps 746 mmHg 89%
    01:00 +9°C° 0 mm 0 mps 747 mmHg 90%
    02:00 +9°C° 0 mm 0 mps 747 mmHg 90%
    03:00 +10°C° 0 mm 1 mps 747 mmHg 90%
    04:00 +10°C° 0 mm 1 mps 747 mmHg 91%
    05:00 +10°C° 0 mm 1 mps 747 mmHg 91%
    06:00 +10°C° 0 mm 1 mps 747 mmHg 89%
    07:00 +11°C° 0 mm 1 mps 747 mmHg 88%
    08:00 +10°C° 0 mm 2 mps 748 mmHg 86%
    09:00 +13°C° 0 mm 2 mps 748 mmHg 80%
    10:00 +14°C° 0 mm 2 mps 748 mmHg 74%
    11:00 +16°C° 0 mm 2 mps 748 mmHg 68%
    12:00 +16°C° 0 mm 2 mps 748 mmHg 67%
    13:00 +16°C° 0 mm 3 mps 748 mmHg 65%
    14:00 +17°C° 0 mm 3 mps 747 mmHg 63%
    15:00 +16°C° 0 mm 2 mps 747 mmHg 69%
    16:00 +14°C° 0 mm 2 mps 747 mmHg 74%
    17:00 +13°C° 0 mm 2 mps 747 mmHg 79%
    18:00 +13°C° 0 mm 2 mps 747 mmHg 80%
    19:00 +12°C° 0 mm 2 mps 748 mmHg 81%
    20:00 +12°C° 0 mm 2 mps 748 mmHg 82%
    21:00 +10°C° 0 mm 2 mps 748 mmHg 83%
    22:00 +10°C° 0 mm 2 mps 748 mmHg 83%
    23:00 +10°C° 0 mm 2 mps 748 mmHg 84%

    Day after tomorrow, 20 October, Sunday

    Time Temperature Precipitation Wind Pressure Humidity
    00:00 +10°C° 0 mm 2 mps 748 mmHg 84%
    01:00 +9°C° 0 mm 2 mps 748 mmHg 85%
    02:00 +9°C° 0 mm 2 mps 748 mmHg 86%
    03:00 +9°C° 0 mm 2 mps 748 mmHg 87%
    04:00 +9°C° 0 mm 2 mps 748 mmHg 88%
    05:00 +9°C° 0 mm 2 mps 748 mmHg 89%
    06:00 +9°C° 0 mm 3 mps 748 mmHg 87%
    07:00 +10°C° 0 mm 3 mps 748 mmHg 84%
    08:00 +11°C° 0 mm 3 mps 749 mmHg 82%
    09:00 +12°C° 0 mm 3 mps 749 mmHg 78%
    10:00 +13°C° 0 mm 3 mps 749 mmHg 73%
    11:00 +15°C° 0 mm 4 mps 749 mmHg 69%
    12:00 +15°C° 0 mm 4 mps 749 mmHg 67%
    13:00 +17°C° 0 mm 4 mps 748 mmHg 66%
    14:00 +18°C° 0 mm 4 mps 748 mmHg 64%
    15:00 +15°C° 0 mm 4 mps 748 mmHg 70%
    16:00 +14°C° 0 mm 3 mps 748 mmHg 76%
    17:00 +13°C° 0 mm 3 mps 748 mmHg 82%
    18:00 +12°C° 0 mm 3 mps 748 mmHg 83%
    19:00 +12°C° 0 mm 3 mps 748 mmHg 84%
    20:00 +12°C° 0 mm 3 mps 748 mmHg 85%
    21:00 +11°C° 0 mm 3 mps 748 mmHg 86%
    22:00 +11°C° 0 mm 3 mps 748 mmHg 86%
    23:00 +11°C° 0 mm 3 mps 748 mmHg 86%

    21 October, Monday

    Time Temperature Precipitation Wind Pressure Humidity
    00:00 +10°C° 0 mm 3 mps 748 mmHg 86%
    01:00 +10°C° 0 mm 3 mps 748 mmHg 86%
    02:00 +10°C° 0 mm 3 mps 748 mmHg 86%
    03:00 +10°C° 0 mm 3 mps 748 mmHg 85%
    04:00 +9°C° 0 mm 3 mps 748 mmHg 85%
    05:00 +9°C° 0 mm 3 mps 748 mmHg 85%
    06:00 +10°C° 0 mm 4 mps 748 mmHg 81%
    07:00 +10°C° 0 mm 4 mps 748 mmHg 77%
    08:00 +11°C° 0 mm 4 mps 748 mmHg 74%
    09:00 +13°C° 0 mm 4 mps 748 mmHg 69%
    10:00 +14°C° 0 mm 5 mps 748 mmHg 64%
    11:00 +16°C° 0 mm 5 mps 748 mmHg 59%
    12:00 +16°C° 0 mm 5 mps 748 mmHg 58%
    13:00 +17°C° 0 mm 5 mps 747 mmHg 57%
    14:00 +17°C° 0 mm 5 mps 747 mmHg 56%
    15:00 +16°C° 0 mm 5 mps 747 mmHg 61%
    16:00 +15°C° 0 mm 4 mps 746 mmHg 66%
    17:00 +13°C° 0 mm 4 mps 746 mmHg 72%
    18:00 +13°C° 0 mm 4 mps 746 mmHg 72%
    19:00 +13°C° 0 mm 4 mps 746 mmHg 73%
    20:00 +12°C° 0 mm 4 mps 746 mmHg 74%
    21:00 +12°C° 0 mm 4 mps 746 mmHg 74%
    22:00 +12°C° 0 mm 5 mps 745 mmHg 74%
    23:00 +12°C° 0 mm 5 mps 745 mmHg 74%

    22 October, Tuesday

    Time Temperature Precipitation Wind Pressure Humidity
    00:00 +12°C° 0 mm 5 mps 745 mmHg 75%
    01:00 +12°C° 0 mm 5 mps 744 mmHg 76%
    02:00 +10°C° 0 mm 5 mps 744 mmHg 77%
    03:00 +10°C° 0 mm 5 mps 744 mmHg 76%
    04:00 +10°C° 0 mm 5 mps 743 mmHg 76%
    05:00 +10°C° 0 mm 5 mps 743 mmHg 76%
    06:00 +10°C° 0 mm 6 mps 743 mmHg 75%
    07:00 +10°C° 0 mm 6 mps 743 mmHg 74%
    08:00 +11°C° 0 mm 6 mps 742 mmHg 73%
    09:00 +12°C° 0 mm 7 mps 742 mmHg 71%
    10:00 +14°C° 0 mm 7 mps 742 mmHg 69%
    11:00 +15°C° 0 mm 7 mps 742 mmHg 67%
    12:00 +15°C° 0 mm 7 mps 742 mmHg 69%
    13:00 +15°C° 0 mm 7 mps 742 mmHg 71%
    14:00 +16°C° 0 mm 6 mps 743 mmHg 74%
    15:00 +14°C° 0 mm 6 mps 743 mmHg 74%
    16:00 +13°C° 0 mm 6 mps 744 mmHg 75%
    17:00 +11°C° 0 mm 6 mps 744 mmHg 75%
    18:00 +10°C° 0 mm 6 mps 745 mmHg 76%
    19:00 +9°C° 0 mm 5 mps 746 mmHg 78%
    20:00 +8°C° 0 mm 5 mps 747 mmHg 79%
    21:00 +8°C° 0 mm 5 mps 747 mmHg 80%
    22:00 +7°C° 0 mm 4 mps 748 mmHg 81%
    23:00 +6°C° 0 mm 4 mps 748 mmHg 82%

    23 October, Wednesday

    Time Temperature Precipitation Wind Pressure Humidity
    00:00 +7°C° 0 mm 3 mps 749 mmHg 84%
    01:00 +5°C° 0 mm 3 mps 749 mmHg 86%
    02:00 +4°C° 0 mm 3 mps 750 mmHg 89%
    03:00 +5°C° 0 mm 2 mps 750 mmHg 89%
    04:00 +5°C° 0 mm 2 mps 750 mmHg 89%
    05:00 +4°C° 0 mm 2 mps 751 mmHg 89%
    06:00 +5°C° 0 mm 2 mps 751 mmHg 86%
    07:00 +5°C° 0 mm 2 mps 751 mmHg 83%
    08:00 +7°C° 0 mm 1 mps 751 mmHg 81%
    09:00 +7°C° 0 mm 2 mps 752 mmHg 76%
    10:00 +8°C° 0 mm 2 mps 752 mmHg 70%
    11:00 +10°C° 0 mm 2 mps 752 mmHg 65%
    12:00 +10°C° 0 mm 2 mps 752 mmHg 64%
    13:00 +12°C° 0 mm 2 mps 751 mmHg 62%
    14:00 +12°C° 0 mm 2 mps 751 mmHg 61%
    15:00 +10°C° 0 mm 2 mps 751 mmHg 65%
    16:00 +9°C° 0 mm 2 mps 751 mmHg 70%
    17:00 +9°C° 0 mm 1 mps 751 mmHg 75%
    18:00 +8°C° 0 mm 2 mps 751 mmHg 76%
    19:00 +7°C° 0 mm 2 mps 751 mmHg 78%
    20:00 +7°C° 0 mm 2 mps 751 mmHg 80%
    21:00 +6°C° 0 mm 2 mps 751 mmHg 81%
    22:00 +6°C° 0 mm 2 mps 751 mmHg 82%
    23:00 +6°C° 0 mm 2 mps 751 mmHg 83%
    Show more